Location: Airlie Beach - Cannonvale QLD, Australia
(20.2768°S, 148.7558°E)
Time: 05:00:36
(UTC+10:00)

Hubble Space Telescope - Pass Details

Date: 02 April 2023
Orbit: 525 x 528 km, 28.5° (Epoch: 31 May)

Event Time Altitude Azimuth Distance (km) Brightness Sun altitude
Exits shadow 04:29:23 23° 18° (NNE) 1,146 2.5 -24.9°
Maximum altitude 04:29:49 23° 29° (NNE) 1,132 2.6 -24.8°
Drops below altitude 10° 04:33:06 10° 83° (E) 1,760 4.4 -24.0°
Sets 04:35:41 0° 97° (E) 2,651 5.8 -23.4°
